MOLNIYA 1-88

Last updated on Aug. 7, 2020, 5:36 a.m. UTC

1 23420U 94081A   20219.36472083 -.00000082  00000-0  00000+0 0  9990
2 23420  64.1698 352.9515 6012847 293.3674  15.9615  3.34492703224199
UTC
Height (km)
Latitude
Longitude
Inclination
Orbital Period
UTC large
Height (km)
Speed (km/s)
/
Latitude / Longitude
Inclination (degrees)
Orbital Period (minutes)
Azimuth
Elevation
Range (km)
Doppler Factor
iOS Compass Heading
iOS Angle

Next 30 passes for location: Hong Kong

Rise time Rise Azimuth (degrees) Set time Set Azimuth (degrees) Duration Max altitude (degrees)

No matching passes for this satellites